User: anonymous   Login
Location: Erlenbrunn
(49.1717°N, 7.6142°E)
Time: 12:49:36
(UTC+00:00)
Language:

CSL-04 Rocket - Orbit

View from above orbital plane
View from above orbital plane
View from above satellite
View from above satellite

Ground track
Ground track

The orbit data is extracted from the following two-line orbital elements,

1 25732U 99025C   21061.35152354 -.00000024  00000-0  10530-4 0  9992
2 25732  98.9172  97.4944 0037160 193.8216 176.9418 14.17688689128501
Epoch (UTC): 02 March 2021 08:26:11
Eccentricity: 0.0037160
inclination: 98.9172°
perigee height: 806 km
apogee height: 860 km
right ascension of ascending node: 97.4944°
argument of perigee: 193.8216°
revolutions per day: 14.17688689
mean anomaly at epoch: 176.9418°
orbit number at epoch: 12850

The dashed part of the orbit path shows where the satellite is in the earth's shadow,  

DLR